Meteo orario Alicante

Oggi, 20 Ottobre, Martedi

Tempo Temperatura Precipitazioni Vento Pressione Umidità
00:00 +16°C° 0 mm 1 m/s 762 mm Hg 75%
01:00 +16°C° 0 mm 1 m/s 762 mm Hg 72%
02:00 +16°C° 0 mm 1 m/s 761 mm Hg 69%
03:00 +16°C° 0 mm 1 m/s 761 mm Hg 67%
04:00 +16°C° 0 mm 2 m/s 761 mm Hg 62%
05:00 +16°C° 0 mm 2 m/s 761 mm Hg 58%
06:00 +16°C° 0 mm 2 m/s 761 mm Hg 54%
07:00 +18°C° 0 mm 2 m/s 761 mm Hg 50%
08:00 +20°C° 0 mm 2 m/s 761 mm Hg 47%
09:00 +24°C° 0 mm 2 m/s 761 mm Hg 43%
10:00 +25°C° 0 mm 3 m/s 760 mm Hg 43%
11:00 +26°C° 0 mm 3 m/s 760 mm Hg 43%
12:00 +27°C° 0 mm 4 m/s 760 mm Hg 43%
13:00 +27°C° 0 mm 4 m/s 759 mm Hg 47%
14:00 +26°C° 0 mm 3 m/s 759 mm Hg 50%
15:00 +26°C° 0 mm 3 m/s 758 mm Hg 53%
16:00 +25°C° 0 mm 3 m/s 758 mm Hg 57%
17:00 +23°C° 0 mm 2 m/s 757 mm Hg 61%
18:00 +21°C° 0 mm 2 m/s 757 mm Hg 65%
19:00 +21°C° 0 mm 2 m/s 757 mm Hg 61%
20:00 +21°C° 0 mm 3 m/s 757 mm Hg 58%
21:00 +21°C° 0 mm 3 m/s 757 mm Hg 55%
22:00 +20°C° 0 mm 3 m/s 757 mm Hg 58%
23:00 +20°C° 0 mm 3 m/s 756 mm Hg 61%

Domani, 21 Ottobre, Mercoledi

Tempo Temperatura Precipitazioni Vento Pressione Umidità
00:00 +20°C° 0 mm 2 m/s 756 mm Hg 63%
01:00 +20°C° 0 mm 2 m/s 756 mm Hg 63%
02:00 +20°C° 0 mm 2 m/s 756 mm Hg 63%
03:00 +20°C° 0 mm 2 m/s 756 mm Hg 63%
04:00 +20°C° 0 mm 2 m/s 756 mm Hg 61%
05:00 +21°C° 0 mm 1 m/s 756 mm Hg 58%
06:00 +21°C° 0 mm 1 m/s 756 mm Hg 56%
07:00 +23°C° 0 mm 1 m/s 757 mm Hg 54%
08:00 +24°C° 0 mm 2 m/s 758 mm Hg 52%
09:00 +25°C° 0 mm 2 m/s 758 mm Hg 51%
10:00 +26°C° 0 mm 3 m/s 758 mm Hg 49%
11:00 +28°C° 0 mm 5 m/s 758 mm Hg 47%
12:00 +29°C° 0 mm 6 m/s 758 mm Hg 45%
13:00 +29°C° 0 mm 6 m/s 758 mm Hg 46%
14:00 +28°C° 0 mm 5 m/s 758 mm Hg 48%
15:00 +28°C° 0 mm 5 m/s 758 mm Hg 50%
16:00 +26°C° 0 mm 4 m/s 758 mm Hg 57%
17:00 +24°C° 0 mm 3 m/s 758 mm Hg 65%
18:00 +23°C° 0 mm 1 m/s 758 mm Hg 73%
19:00 +22°C° 0 mm 1 m/s 758 mm Hg 73%
20:00 +22°C° 0 mm 1 m/s 758 mm Hg 72%
21:00 +22°C° 0 mm 1 m/s 759 mm Hg 72%
22:00 +22°C° 0 mm 1 m/s 759 mm Hg 72%
23:00 +21°C° 0 mm 1 m/s 759 mm Hg 71%

Dopodomani, 22 Ottobre, Giovedi

Tempo Temperatura Precipitazioni Vento Pressione Umidità
00:00 +19°C° 0 mm 0 m/s 759 mm Hg 71%
01:00 +21°C° 0 mm 1 m/s 759 mm Hg 70%
02:00 +21°C° 0 mm 1 m/s 759 mm Hg 69%
03:00 +21°C° 0 mm 1 m/s 758 mm Hg 67%
04:00 +20°C° 0 mm 1 m/s 759 mm Hg 70%
05:00 +20°C° 0 mm 1 m/s 759 mm Hg 72%
06:00 +20°C° 0 mm 1 m/s 759 mm Hg 74%
07:00 +21°C° 0 mm 1 m/s 760 mm Hg 69%
08:00 +23°C° 0 mm 1 m/s 760 mm Hg 64%
09:00 +24°C° 0 mm 2 m/s 761 mm Hg 60%
10:00 +24°C° 0 mm 1 m/s 761 mm Hg 59%
11:00 +24°C° 0 mm 1 m/s 761 mm Hg 59%
12:00 +24°C° 0 mm 1 m/s 761 mm Hg 59%
13:00 +24°C° 0.1 mm 1 m/s 761 mm Hg 64%
14:00 +23°C° 0.1 mm 1 m/s 760 mm Hg 69%
15:00 +22°C° 0.1 mm 1 m/s 760 mm Hg 74%
16:00 +21°C° 0.1 mm 2 m/s 761 mm Hg 74%
17:00 +20°C° 0.1 mm 2 m/s 761 mm Hg 75%
18:00 +20°C° 0.1 mm 3 m/s 761 mm Hg 76%
19:00 +20°C° 0.3 mm 2 m/s 762 mm Hg 78%
20:00 +19°C° 0.3 mm 2 m/s 762 mm Hg 80%
21:00 +19°C° 0.3 mm 2 m/s 763 mm Hg 82%
22:00 +19°C° 0.2 mm 2 m/s 763 mm Hg 82%
23:00 +19°C° 0.2 mm 2 m/s 763 mm Hg 82%

23 Ottobre, Venerdi

Tempo Temperatura Precipitazioni Vento Pressione Umidità
00:00 +19°C° 0.2 mm 2 m/s 763 mm Hg 82%
01:00 +19°C° 0 mm 3 m/s 764 mm Hg 81%
02:00 +19°C° 0 mm 3 m/s 764 mm Hg 81%
03:00 +19°C° 0 mm 3 m/s 764 mm Hg 81%
04:00 +19°C° 0 mm 3 m/s 764 mm Hg 81%
05:00 +19°C° 0 mm 3 m/s 764 mm Hg 81%
06:00 +19°C° 0 mm 3 m/s 764 mm Hg 81%
07:00 +20°C° 0 mm 3 m/s 765 mm Hg 73%
08:00 +21°C° 0 mm 3 m/s 765 mm Hg 65%
09:00 +22°C° 0 mm 4 m/s 766 mm Hg 58%
10:00 +24°C° 0 mm 3 m/s 765 mm Hg 52%
11:00 +26°C° 0 mm 3 m/s 765 mm Hg 46%
12:00 +27°C° 0 mm 3 m/s 765 mm Hg 41%
13:00 +27°C° 0 mm 4 m/s 765 mm Hg 41%
14:00 +27°C° 0 mm 4 m/s 765 mm Hg 41%
15:00 +27°C° 0 mm 4 m/s 765 mm Hg 41%
16:00 +25°C° 0.3 mm 4 m/s 765 mm Hg 48%
17:00 +24°C° 0.3 mm 3 m/s 765 mm Hg 55%
18:00 +22°C° 0.3 mm 3 m/s 765 mm Hg 62%
19:00 +22°C° 0.2 mm 3 m/s 766 mm Hg 62%
20:00 +21°C° 0.2 mm 2 m/s 766 mm Hg 62%
21:00 +21°C° 0.2 mm 2 m/s 766 mm Hg 62%
22:00 +21°C° 0.1 mm 2 m/s 766 mm Hg 62%
23:00 +21°C° 0.1 mm 3 m/s 766 mm Hg 63%

24 Ottobre, Sabato

Tempo Temperatura Precipitazioni Vento Pressione Umidità
00:00 +20°C° 0.1 mm 3 m/s 766 mm Hg 63%
01:00 +20°C° 0.5 mm 3 m/s 766 mm Hg 64%
02:00 +20°C° 0.5 mm 3 m/s 766 mm Hg 65%
03:00 +19°C° 0.5 mm 3 m/s 765 mm Hg 66%
04:00 +19°C° 0.8 mm 2 m/s 765 mm Hg 66%
05:00 +18°C° 0.8 mm 2 m/s 766 mm Hg 65%
06:00 +18°C° 0.8 mm 2 m/s 766 mm Hg 65%
07:00 +19°C° 0.4 mm 2 m/s 766 mm Hg 58%
08:00 +21°C° 0.4 mm 2 m/s 766 mm Hg 51%
09:00 +23°C° 0.4 mm 1 m/s 766 mm Hg 44%
10:00 +24°C° 0 mm 2 m/s 766 mm Hg 42%
11:00 +25°C° 0 mm 2 m/s 766 mm Hg 40%
12:00 +26°C° 0 mm 2 m/s 766 mm Hg 38%
13:00 +25°C° 0 mm 2 m/s 765 mm Hg 40%
14:00 +25°C° 0 mm 3 m/s 765 mm Hg 42%
15:00 +25°C° 0 mm 3 m/s 765 mm Hg 45%
16:00 +24°C° 0 mm 3 m/s 764 mm Hg 54%
17:00 +21°C° 0 mm 2 m/s 764 mm Hg 63%
18:00 +21°C° 0 mm 1 m/s 764 mm Hg 72%
19:00 +20°C° 0 mm 1 m/s 765 mm Hg 75%
20:00 +20°C° 0 mm 1 m/s 765 mm Hg 78%
21:00 +19°C° 0 mm 1 m/s 765 mm Hg 80%
22:00 +19°C° 0 mm 1 m/s 765 mm Hg 81%
23:00 +18°C° 0 mm 1 m/s 764 mm Hg 81%

25 Ottobre, Domenica

Tempo Temperatura Precipitazioni Vento Pressione Umidità
00:00 +18°C° 0 mm 1 m/s 764 mm Hg 81%
01:00 +18°C° 0 mm 1 m/s 764 mm Hg 81%
02:00 +16°C° 0 mm 1 m/s 763 mm Hg 81%
03:00 +16°C° 0 mm 1 m/s 763 mm Hg 80%
04:00 +16°C° 0 mm 1 m/s 763 mm Hg 81%
05:00 +16°C° 0 mm 1 m/s 763 mm Hg 81%
06:00 +15°C° 0 mm 1 m/s 762 mm Hg 81%
07:00 +18°C° 0 mm 1 m/s 762 mm Hg 71%
08:00 +20°C° 0 mm 1 m/s 762 mm Hg 62%
09:00 +21°C° 0 mm 2 m/s 762 mm Hg 52%
10:00 +23°C° 0 mm 2 m/s 762 mm Hg 48%
11:00 +24°C° 0 mm 3 m/s 761 mm Hg 45%
12:00 +25°C° 0 mm 4 m/s 761 mm Hg 41%
13:00 +25°C° 0 mm 4 m/s 761 mm Hg 41%
14:00 +25°C° 0 mm 5 m/s 760 mm Hg 42%
15:00 +25°C° 0 mm 5 m/s 759 mm Hg 43%
16:00 +22°C° 0 mm 4 m/s 759 mm Hg 50%
17:00 +21°C° 0 mm 4 m/s 759 mm Hg 58%
18:00 +19°C° 0 mm 3 m/s 759 mm Hg 65%
19:00 +19°C° 0 mm 3 m/s 760 mm Hg 60%
20:00 +19°C° 0 mm 3 m/s 760 mm Hg 55%
21:00 +19°C° 0 mm 3 m/s 760 mm Hg 50%
22:00 +18°C° 0 mm 4 m/s 760 mm Hg 52%
23:00 +17°C° 0 mm 5 m/s 761 mm Hg 55%

26 Ottobre, Lunedi

Tempo Temperatura Precipitazioni Vento Pressione Umidità
00:00 +17°C° 0 mm 6 m/s 761 mm Hg 57%
01:00 +16°C° 0 mm 7 m/s 761 mm Hg 55%
02:00 +15°C° 0 mm 8 m/s 761 mm Hg 53%
03:00 +13°C° 0 mm 9 m/s 761 mm Hg 50%
04:00 +12°C° 0 mm 10 m/s 762 mm Hg 53%
05:00 +12°C° 0 mm 10 m/s 762 mm Hg 56%
06:00 +12°C° 0 mm 10 m/s 762 mm Hg 59%
07:00 +13°C° 0 mm 10 m/s 763 mm Hg 54%
08:00 +14°C° 0 mm 10 m/s 763 mm Hg 50%
09:00 +16°C° 0 mm 10 m/s 763 mm Hg 45%
10:00 +17°C° 0 mm 10 m/s 763 mm Hg 41%
11:00 +18°C° 0 mm 10 m/s 763 mm Hg 36%
12:00 +19°C° 0 mm 9 m/s 763 mm Hg 32%
13:00 +19°C° 0 mm 9 m/s 762 mm Hg 30%
14:00 +21°C° 0 mm 8 m/s 762 mm Hg 29%
15:00 +21°C° 0 mm 8 m/s 762 mm Hg 28%
16:00 +20°C° 0 mm 8 m/s 762 mm Hg 31%
17:00 +18°C° 0 mm 7 m/s 763 mm Hg 33%
18:00 +17°C° 0 mm 7 m/s 763 mm Hg 36%
19:00 +16°C° 0 mm 6 m/s 763 mm Hg 38%
20:00 +16°C° 0 mm 6 m/s 764 mm Hg 40%
21:00 +15°C° 0 mm 5 m/s 764 mm Hg 43%
22:00 +15°C° 0 mm 5 m/s 764 mm Hg 45%
23:00 +14°C° 0 mm 5 m/s 764 mm Hg 47%
Mostrare altro

Abbiamo bisogno del tuo consenso

Meteoprog e i nostri fornitori di servizi possono memorizzare e accedere a dati personali come cookie, identificatori di dispositivi o altre tecnologie simili sul tuo dispositivo e possono elaborare tali dati per personalizzare i contenuti e gli annunci, nonché fornire funzionalità dei social media e analizzarne il traffico.

  • Archiviare e/o accedere alle informazioni sul tuo dispositivo

    Cookie, identificatori di dispositivi o altre informazioni possono essere memorizzati o resi accessibili sul tuo dispositivo per le finalità sopra indicate.

  • Annunci e contenuti personalizzati, misurazione di annunci e contenuti, approfondimenti sul pubblico e sviluppo di prodotti

    Gli annunci e i contenuti possono essere personalizzati in base a un profilo. È possibile aggiungere più dati per personalizzare meglio annunci e contenuti. È possibile misurare il rendimento degli annunci e dei contenuti. È possibile ricavare informazioni sul pubblico che ha visto gli annunci e i contenuti. Tali dati possono essere utilizzati per sviluppare o migliorare l'esperienza, i sistemi e il software dell'utente.

Cliccando su “Accetto”, acconsenti all'uso di cookie, identificatori di dispositivo, web beacon o altre tecnologie simili. Puoi modificare le impostazioni nel browser del tuo dispositivo.

Per determinati scopi, è possibile fare affidamento su interessi legali, piuttosto che sul consenso. Puoi approfondire questo argomento consultando la nostra Informativa sulla privacy e sui cookie.